Cosmos 1908 - Orbit

View from above orbital plane
View from above orbital plane
View from above satellite
View from above satellite

Ground track
Ground track

The orbit data is extracted from the following two-line orbital elements,

1 18748U 88001A   13137.84057447  .00003433  00000-0  23396-3 0  9426
2 18748 082.4984 087.3848 0010618 330.2532 087.2553 15.05926551380614
Epoch (UTC): 17 May 2013 20:10:25
Eccentricity: 0.0010618
inclination: 82.4984°
perigee height: 541 km
apogee height: 556 km
right ascension of ascending node: 87.3848°
argument of perigee: 330.2532°
revolutions per day: 15.05926551
mean anomaly at epoch: 87.2553°
orbit number at epoch: 38061

The dashed part of the orbit path shows where the satellite is in the earth's shadow,  

Developed and maintained by Chris Peat, Heavens-Above GmbH. Please read the updated FAQ before sending e-mail. Imprint. DLR